DW6417 Weather Reports


Display with metric or nautical units.
time (UTC)temp
F
wind
direction
speed
MPH
gust
MPH
rain 1hr
in
rain 24hr
in
rain mn
in
humidity
%
barometer
mb
20260904115714 72 259 9.0 17.0 0.00 0.00 0.00 79 1009.2
20260904115508 72 251 11.0 17.0 0.00 0.00 0.00 80 1009.2
20260904115009 73 253 9.0 16.0 0.00 0.00 0.00 79 1009.2
20260904114714 73 249 8.0 13.0 0.00 0.00 0.00 78 1009.2
20260904114009 73 255 8.0 17.0 0.00 0.00 0.00 77 1009.2
20260904113715 74 260 10.0 17.0 0.00 0.00 0.00 75 1009.3
20260904113508 74 252 9.0 17.0 0.00 0.00 0.00 75 1009.3
20260904113009 74 250 10.0 18.0 0.00 0.00 0.00 73 1009.3
20260904112716 74 235 7.0 20.0 0.00 0.00 0.00 73 1009.2
20260904112508 74 250 9.0 18.0 0.00 0.00 0.00 72 1009.2
20260904112009 74 252 10.0 22.0 0.00 0.00 0.00 73 1009.2
20260904105715 75 256 9.0 23.0 0.00 0.00 0.00 70 1009.3
20260904104715 75 237 13.0 24.0 0.00 0.00 0.00 70 1009.2
20260904103716 74 249 11.0 19.0 0.00 0.00 0.00 72 1009.3
20260904102710 74 242 12.0 21.0 0.00 0.00 0.00 71 1009.5
20260904101710 74 294 10.0 20.0 0.00 0.00 0.00 70 1009.5
20260904100710 75 204 12.0 25.0 0.00 0.00 0.00 69 1009.3
20260904095710 75 251 9.0 18.0 0.00 0.00 0.00 71 1009.4
20260904094710 74 258 10.0 20.0 0.00 0.00 0.00 73 1009.3
20260904090710 73 245 9.0 21.0 0.00 0.00 0.00 78 1009.7
20260904085710 72 225 10.0 18.0 0.00 0.00 0.00 78 1009.9
20260904084710 72 244 9.0 23.0 0.00 0.00 0.00 78 1010.0
20260904083711 72 226 7.0 17.0 0.00 0.00 0.00 78 1010.0
20260904082711 72 270 11.0 26.0 0.00 0.00 0.00 77 1010.3
20260904081711 72 246 11.0 19.0 0.00 0.00 0.00 77 1010.2
20260904075711 72 240 10.0 21.0 0.00 0.01 0.00 78 1010.2
20260904074711 71 247 9.0 15.0 0.00 0.01 0.00 79 1010.1
20260904073711 71 249 8.0 18.0 0.00 0.01 0.00 79 1010.0
20260904072711 71 215 6.0 16.0 0.00 0.01 0.00 79 1010.3
20260904071711 71 219 8.0 18.0 0.00 0.01 0.00 80 1010.6
20260904070711 71 262 6.0 15.0 0.00 0.01 0.00 80 1010.5
20260904065711 70 270 6.0 12.0 0.00 0.05 0.00 81 1010.4
20260904064711 69 215 6.0 11.0 0.00 0.05 0.00 82 1010.6
20260904063711 69 242 6.0 12.0 0.00 0.05 0.00 83 1010.6
20260904062711 69 253 4.0 11.0 0.00 0.05 0.00 83 1010.8
20260904061711 69 242 6.0 14.0 0.00 0.05 0.00 83 1010.9
20260904060711 69 215 6.0 16.0 0.00 0.05 0.00 83 1010.9
20260904054711 69 240 8.0 15.0 0.00 0.05 0.00 83 1011.4
20260904052711 68 262 5.0 16.0 0.00 0.05 0.00 84 1011.3
20260904051711 68 255 5.0 14.0 0.00 0.05 0.00 84 1011.4
20260904050711 68 257 7.0 17.0 0.00 0.05 0.00 84 1011.6
20260904045711 68 265 4.0 12.0 0.00 0.05 0.00 85 1011.6
20260904044712 68 246 5.0 13.0 0.00 0.05 0.00 85 1011.5
20260904043713 68 257 5.0 12.0 0.00 0.05 0.00 85 1011.6
20260904042712 68 236 4.0 8.0 0.00 0.05 0.00 85 1011.7
20260904041712 68 237 3.0 11.0 0.00 0.05 0.00 85 1011.8
20260904040712 68 200 5.0 9.0 0.00 0.05 0.00 85 1011.7
20260904035712 68 264 4.0 10.0 0.00 0.05 0.00 85 1012.0
20260904034712 68 240 5.0 11.0 0.00 0.05 0.00 85 1012.3
20260904033712 68 255 5.0 14.0 0.00 0.05 0.00 85 1012.2
20260904032712 68 247 5.0 12.0 0.00 0.05 0.00 85 1012.2
20260904025712 68 207 4.0 9.0 0.00 0.05 0.00 85 1012.3
20260904024712 68 226 4.0 10.0 0.00 0.05 0.00 85 1012.5
20260904023712 68 186 5.0 10.0 0.00 0.05 0.00 85 1012.6
20260904022712 68 234 5.0 11.0 0.00 0.05 0.00 85 1012.7
20260904021712 68 249 4.0 12.0 0.00 0.05 0.00 85 1013.0
20260904020712 68 229 6.0 12.0 0.00 0.05 0.00 85 1013.1
20260904015712 68 208 4.0 11.0 0.00 0.05 0.00 85 1013.3
20260904014712 69 230 5.0 12.0 0.00 0.05 0.00 85 1013.4
20260904013712 69 242 5.0 13.0 0.00 0.05 0.00 85 1013.6
20260904012713 69 251 6.0 14.0 0.00 0.05 0.00 85 1013.6
20260904010712 69 282 5.0 12.0 0.00 0.05 0.00 85 1013.7
20260904005712 69 210 4.0 14.0 0.00 0.05 0.00 85 1013.7
20260904002713 69 253 5.0 10.0 0.00 0.05 0.00 85 1013.9
20260904001713 69 201 5.0 11.0 0.00 0.05 0.00 85 1013.9
20260904000713 69 253 4.0 10.0 0.00 0.05 0.00 85 1014.1
20260903235713 69 188 5.0 11.0 0.00 0.05 0.00 86 1014.3
20260903234713 68 248 5.0 11.0 0.00 0.05 0.00 86 1014.3
20260903233713 68 232 5.0 11.0 0.00 0.05 0.00 86 1014.3
20260903232713 68 255 5.0 12.0 0.00 0.05 0.00 86 1014.3
20260903231713 68 270 5.0 9.0 0.00 0.05 0.00 86 1014.5
20260903230713 68 230 4.0 9.0 0.00 0.05 0.00 86 1014.5
20260903225713 68 240 3.0 10.0 0.00 0.05 0.00 86 1014.6
20260903224713 68 242 3.0 6.0 0.00 0.05 0.00 86 1014.6
20260903223713 68 232 2.0 5.0 0.00 0.05 0.00 86 1014.8
20260903222713 68 207 3.0 9.0 0.00 0.05 0.00 86 1014.9
20260903221713 68 186 2.0 5.0 0.00 0.05 0.00 86 1014.9
20260903220713 68 246 3.0 7.0 0.00 0.05 0.00 86 1014.9
20260903215714 68 247 3.0 8.0 0.00 0.05 0.05 86 1015.0
20260903214713 68 226 3.0 7.0 0.00 0.05 0.05 86 1015.2
20260903213714 69 227 3.0 8.0 0.00 0.05 0.05 85 1015.5
20260903211713 69 244 4.0 11.0 0.00 0.05 0.05 84 1015.5
20260903210713 69 271 5.0 14.0 0.00 0.05 0.05 83 1015.5
20260903205714 69 211 3.0 13.0 0.00 0.05 0.05 82 1015.4
20260903203714 70 236 6.0 16.0 0.00 0.05 0.05 82 1015.6
20260903202714 70 208 5.0 11.0 0.00 0.05 0.05 82 1015.6
20260903201714 69 222 5.0 11.0 0.00 0.05 0.05 82 1015.6
20260903200714 69 193 2.0 6.0 0.00 0.05 0.05 82 1015.6
20260903195714 69 237 2.0 5.0 0.00 0.05 0.05 81 1015.5
20260903194714 69 240 1.0 4.0 0.00 0.05 0.05 81 1015.6
20260903193714 69 242 1.0 3.0 0.00 0.05 0.05 81 1015.6
20260903191714 69 242 3.0 7.0 0.00 0.05 0.05 80 1015.6
20260903190714 69 255 3.0 6.0 0.00 0.05 0.05 79 1015.5
20260903185714 70 257 3.0 7.0 0.00 0.05 0.05 78 1015.6
20260903184714 70 248 3.0 7.0 0.00 0.05 0.05 78 1015.7
20260903182714 71 243 5.0 9.0 0.00 0.05 0.05 76 1015.7
20260903180714 72 267 7.0 13.0 0.00 0.05 0.05 75 1015.7
20260903175714 72 254 8.0 14.0 0.00 0.05 0.05 75 1015.4
20260903174714 72 272 7.0 14.0 0.00 0.05 0.05 75 1015.4
20260903173715 72 224 3.0 10.0 0.00 0.05 0.05 75 1015.3
20260903172715 72 244 6.0 9.0 0.00 0.05 0.05 75 1015.6
20260903171714 72 244 5.0 10.0 0.00 0.05 0.05 76 1015.4
20260903170714 72 294 3.0 7.0 0.00 0.05 0.05 76 1015.7
20260903165714 72 258 3.0 10.0 0.00 0.05 0.05 75 1015.4
20260903164715 72 243 4.0 8.0 0.00 0.05 0.05 74 1015.3
20260903163715 73 246 4.0 11.0 0.00 0.05 0.05 73 1015.2
20260903162715 73 315 3.0 8.0 0.00 0.05 0.05 73 1015.4
20260903161715 73 217 3.0 9.0 0.00 0.05 0.05 74 1015.4
20260903160716 73 262 4.0 9.0 0.00 0.05 0.05 74 1015.5
20260903155715 73 235 7.0 12.0 0.00 0.05 0.05 73 1015.4
20260903154715 73 245 7.0 14.0 0.00 0.05 0.05 72 1015.5
20260903153717 73 254 8.0 14.0 0.00 0.05 0.05 72 1015.5
20260903152715 73 257 4.0 9.0 0.00 0.05 0.05 72 1015.5
20260903151715 74 259 5.0 11.0 0.00 0.05 0.05 71 1015.5
20260903150715 74 244 9.0 15.0 0.00 0.05 0.05 72 1015.5
20260903145715 74 251 8.0 17.0 0.00 0.05 0.05 72 1015.5
20260903144715 74 244 12.0 19.0 0.00 0.05 0.05 70 1015.7
20260903143715 75 255 9.0 16.0 0.00 0.05 0.05 71 1015.6
20260903142715 75 265 7.0 19.0 0.00 0.05 0.05 71 1015.7
20260903141715 75 250 8.0 16.0 0.00 0.05 0.05 71 1015.6
20260903140715 75 251 7.0 18.0 0.00 0.05 0.05 70 1015.6
20260903135715 75 203 6.0 15.0 0.00 0.05 0.05 70 1015.5
20260903134715 75 216 6.0 15.0 0.00 0.05 0.05 71 1015.5
20260903133716 73 267 7.0 16.0 0.00 0.05 0.05 72 1015.7
20260903131715 73 256 8.0 16.0 0.00 0.05 0.05 70 1015.6
20260903130715 74 221 5.0 18.0 0.00 0.05 0.05 71 1015.6
20260903121716 71 267 7.0 14.0 0.00 0.05 0.05 80 1015.6
20260903120716 70 259 5.0 14.0 0.00 0.05 0.05 83 1015.7